TimeEDT,TemperatureF,Dew PointF,Humidity,Sea Level PressureIn,VisibilityMPH,Wind Direction,Wind SpeedMPH,Gust SpeedMPH,PrecipitationIn,Events,Conditions,WindDirDegrees,DateUTC
12:15 AM,42.8,42.8,100,30.18,10.0,Calm,Calm,-,N/A,,Clear,0,2012-10-12 04:15:00
12:35 AM,44.6,42.8,93,30.18,10.0,Calm,Calm,-,N/A,,Clear,0,2012-10-12 04:35:00
12:55 AM,42.8,42.8,100,30.17,10.0,Calm,Calm,-,N/A,,Clear,0,2012-10-12 04:55:00
1:15 AM,41.0,41.0,100,30.18,10.0,NNE,3.5,-,N/A,,Clear,20,2012-10-12 05:15:00
1:35 AM,41.0,41.0,100,30.17,10.0,Calm,Calm,-,N/A,,Clear,0,2012-10-12 05:35:00
1:55 AM,41.0,41.0,100,30.17,10.0,Calm,Calm,-,N/A,,Clear,0,2012-10-12 05:55:00
2:15 AM,39.2,39.2,100,30.17,10.0,North,4.6,-,N/A,,Clear,360,2012-10-12 06:15:00
2:35 AM,39.2,39.2,100,30.17,10.0,Calm,Calm,-,N/A,,Clear,0,2012-10-12 06:35:00
2:55 AM,39.2,39.2,100,30.16,10.0,Calm,Calm,-,N/A,,Clear,0,2012-10-12 06:55:00
3:15 AM,39.2,39.2,100,30.16,7.0,Calm,Calm,-,N/A,,Clear,0,2012-10-12 07:15:00
3:35 AM,39.2,39.2,100,30.16,10.0,Calm,Calm,-,N/A,,Clear,0,2012-10-12 07:35:00
4:15 AM,39.2,39.2,100,30.16,7.0,Calm,Calm,-,N/A,,Clear,0,2012-10-12 08:15:00
4:35 AM,37.4,37.4,100,30.16,10.0,Calm,Calm,-,N/A,,Clear,0,2012-10-12 08:35:00
4:55 AM,37.4,37.4,100,30.17,10.0,Calm,Calm,-,N/A,,Clear,0,2012-10-12 08:55:00
5:15 AM,37.4,37.4,100,30.17,10.0,Calm,Calm,-,N/A,,Clear,0,2012-10-12 09:15:00
5:35 AM,37.4,37.4,100,30.16,7.0,Calm,Calm,-,N/A,,Clear,0,2012-10-12 09:35:00
5:55 AM,37.4,37.4,100,30.16,10.0,Calm,Calm,-,N/A,,Clear,0,2012-10-12 09:55:00
6:15 AM,37.4,37.4,100,30.16,10.0,Calm,Calm,-,N/A,,Clear,0,2012-10-12 10:15:00
6:55 AM,35.6,35.6,100,30.17,10.0,Calm,Calm,-,N/A,,Clear,0,2012-10-12 10:55:00
7:15 AM,37.4,37.4,100,30.18,10.0,Calm,Calm,-,N/A,,Clear,0,2012-10-12 11:15:00
7:35 AM,37.4,37.4,100,30.19,10.0,Calm,Calm,-,N/A,,Clear,0,2012-10-12 11:35:00
7:55 AM,41.0,41.0,100,30.20,10.0,Calm,Calm,-,N/A,,Clear,0,2012-10-12 11:55:00
8:15 AM,42.8,42.8,100,30.19,10.0,Calm,Calm,-,N/A,,Clear,0,2012-10-12 12:15:00
8:35 AM,44.6,44.6,100,30.20,10.0,Calm,Calm,-,N/A,,Clear,0,2012-10-12 12:35:00
8:55 AM,46.4,46.4,100,30.20,10.0,Calm,Calm,-,N/A,,Clear,0,2012-10-12 12:55:00
9:15 AM,50.0,46.4,87,30.21,10.0,Calm,Calm,-,N/A,,Clear,0,2012-10-12 13:15:00
9:35 AM,51.8,48.2,88,30.21,10.0,Calm,Calm,-,N/A,,Clear,0,2012-10-12 13:35:00
9:55 AM,55.4,48.2,77,30.22,10.0,Calm,Calm,-,N/A,,Clear,0,2012-10-12 13:55:00
10:15 AM,59.0,46.4,63,30.23,10.0,Calm,Calm,-,N/A,,Clear,0,2012-10-12 14:15:00
10:35 AM,62.6,42.8,48,30.23,10.0,NNW,5.8,-,N/A,,Clear,330,2012-10-12 14:35:00
10:55 AM,62.6,42.8,48,30.22,10.0,NNE,3.5,-,N/A,,Clear,20,2012-10-12 14:55:00
11:15 AM,64.4,42.8,45,30.23,10.0,North,6.9,-,N/A,,Clear,360,2012-10-12 15:15:00
11:35 AM,64.4,37.4,37,30.23,10.0,NW,10.4,-,N/A,,Clear,310,2012-10-12 15:35:00
12:15 PM,66.2,37.4,35,30.23,10.0,WNW,8.1,17.3,N/A,,Clear,300,2012-10-12 16:15:00
12:35 PM,66.2,39.2,37,30.23,10.0,NNW,6.9,-,N/A,,Clear,340,2012-10-12 16:35:00
1:15 PM,66.2,39.2,37,30.22,10.0,North,12.7,-,N/A,,Clear,360,2012-10-12 17:15:00
1:35 PM,68.0,41.0,37,30.22,10.0,North,12.7,18.4,N/A,,Clear,360,2012-10-12 17:35:00
1:55 PM,66.2,41.0,40,30.22,10.0,North,17.3,-,N/A,,Clear,360,2012-10-12 17:55:00
2:35 PM,66.2,42.8,43,30.22,10.0,North,17.3,24.2,N/A,,Clear,350,2012-10-12 18:35:00
2:55 PM,64.4,42.8,45,30.23,10.0,North,16.1,23.0,N/A,,Clear,350,2012-10-12 18:55:00
3:15 PM,64.4,42.8,45,30.23,10.0,North,17.3,24.2,N/A,,Clear,360,2012-10-12 19:15:00
3:35 PM,64.4,42.8,45,30.25,10.0,NNW,13.8,23.0,N/A,,Clear,330,2012-10-12 19:35:00
3:55 PM,62.6,42.8,48,30.26,10.0,North,12.7,24.2,N/A,,Clear,360,2012-10-12 19:55:00
4:15 PM,62.6,42.8,48,30.27,10.0,North,17.3,-,N/A,,Clear,350,2012-10-12 20:15:00
4:35 PM,60.8,42.8,52,30.28,10.0,North,16.1,19.6,N/A,,Clear,10,2012-10-12 20:35:00
4:55 PM,59.0,42.8,55,30.29,10.0,North,11.5,20.7,N/A,,Clear,360,2012-10-12 20:55:00
5:15 PM,57.2,42.8,59,30.29,10.0,North,16.1,20.7,N/A,,Clear,10,2012-10-12 21:15:00
5:35 PM,57.2,42.8,59,30.31,10.0,North,11.5,-,N/A,,Clear,350,2012-10-12 21:35:00
6:15 PM,55.4,39.2,54,30.33,10.0,North,10.4,16.1,N/A,,Clear,360,2012-10-12 22:15:00
6:55 PM,51.8,39.2,62,30.34,10.0,Calm,Calm,-,N/A,,Clear,0,2012-10-12 22:55:00
7:15 PM,50.0,39.2,66,30.35,10.0,Calm,Calm,-,N/A,,Unknown,0,2012-10-12 23:15:00
7:35 PM,46.4,39.2,76,30.36,10.0,Calm,Calm,-,N/A,,Unknown,0,2012-10-12 23:35:00
7:55 PM,46.4,39.2,76,30.37,10.0,Calm,Calm,-,N/A,,Unknown,0,2012-10-12 23:55:00
8:15 PM,44.6,41.0,87,30.38,10.0,Calm,Calm,-,N/A,,Unknown,0,2012-10-13 00:15:00
8:35 PM,44.6,39.2,81,30.38,10.0,WNW,4.6,-,N/A,,Unknown,290,2012-10-13 00:35:00
8:55 PM,42.8,42.8,100,30.38,10.0,Calm,Calm,-,N/A,,Unknown,0,2012-10-13 00:55:00
9:15 PM,42.8,42.8,100,30.40,10.0,Calm,Calm,-,N/A,,Unknown,0,2012-10-13 01:15:00
9:35 PM,41.0,41.0,100,30.41,10.0,Calm,Calm,-,N/A,,Unknown,0,2012-10-13 01:35:00